Regional Weather Roundup
Issued by NWS

Home | Current Version | Previous Version | Graphics & Text | Print | Product List | Glossary On
Versions: 1 2 3 4 5 6 7 8 9 10 11 12 13 14 15 16 17 18 19 20 21 22 23 24 25 26 27
000
ASUS45 KBOI 252210
RWRID

IDAHO REGIONAL WEATHER ROUNDUP
NATIONAL WEATHER SERVICE BOISE ID
300 PM MST SUN FEB 25 2018

NOTE: "FAIR" INDICATES FEW OR NO CLOUDS BELOW 12000 FEET
WITH NO SIGNIFICANT WEATHER AND/OR OBSTRUCTIONS TO VISIBILITY

IDZ012-014-252300-
SOUTHWEST IDAHO


CITY           SKY/WX    TMP DP  RH WIND       PRES   REMARKS
BOISE          CLOUDY    32  26  78 SE18G25   30.03F WCI  20
CALDWELL       CLOUDY    34  27  75 E20       30.03F WCI  23
MOUNTAIN HOME  CLOUDY    32  32 100 E14       30.05F WCI  22
$$

IDZ016-017-252300-
SOUTHCENTRAL IDAHO


CITY           SKY/WX    TMP DP  RH WIND       PRES   REMARKS
BURLEY         CLOUDY    34  18  52 W12G20    30.04F WCI  25
JEROME         CLOUDY    32  20  61 VRB6      30.06F WCI  26
TWIN FALLS     CLOUDY    33  21  61 S8        30.05F WCI  26
$$

IDZ019>023-252300-
SOUTHEAST IDAHO


CITY           SKY/WX    TMP DP  RH WIND       PRES   REMARKS
IDAHO FALLS    LGT SNOW  26  18  71 S21G31    30.03F WCI  12
POCATELLO      CLOUDY    31  17  56 S14       30.06F WCI  21
REXBURG        CLOUDY    25  16  68 SW23G31   30.01F WCI  10
$$

IDZ006-010-011-018-031-032-252300-
CENTRAL IDAHO MOUNTAINS


CITY           SKY/WX    TMP DP  RH WIND       PRES   REMARKS
MCCALL         LGT SNOW  23  18  81 S16       29.85F WCI  10
HAILEY         LGT SNOW  27  18  69 SW12      29.99S VSB 1   WCI  16
STANLEY          N/A     24  12  60 S13       29.86F WCI  12
SALMON         CLOUDY    38  13  35 S20G26    29.79F WCI  28
CHALLIS        CLOUDY    38  11  32 SE9G25    29.80F WCI  31
$$

IDZ002-004-006-007-026-252300-
NORTHERN IDAHO


CITY           SKY/WX    TMP DP  RH WIND       PRES   REMARKS
LEWISTON       CLOUDY    43  31  62 S26G38    29.75F
LOWELL           N/A     33  31  92 N3        29.81F
COEUR D`ALENE  CLOUDY    38  29  70 SW24G31   29.59  WCI  27
MULLAN PASS    HVY SNOW  22  18  85 S8G23     29.50F VSB<1/4 WCI  12
$$




USA.gov is the U.S. government's official web portal to all federal, state and local government web resources and services.